Location: Madrid
(40.4167°N, 3.7036°W)
Time: 14:08:29
(UTC+00:00)

ISS - Pass Details

Date: 10 July 2024
Orbit: 410 x 424 km, 51.6° (Epoch: 14 July)

Event Time Altitude Azimuth Distance (km) Brightness Sun altitude
Rises 22:33:52 0° 276° (W) 2,335 0.5 -22.8°
Reaches altitude 10° 22:36:25 10° 296° (WNW) 1,476 -0.3 -23.0°
Maximum altitude 22:38:47 18° 342° (NNW) 1,088 -0.8 -23.2°
Drops below altitude 10° 22:41:10 10° 28° (NNE) 1,481 -0.5 -23.4°
Sets 22:43:44 0° 48° (NE) 2,347 0.3 -23.6°
